| time (UTC) | temp F | wind direction | speed MPH | gust MPH | rain 1hr in | rain 24hr in | rain mn in | humidity % | barometer mb |
| 20260506113051 | 53 | 222 | 0.0 | 0.0 | 0.00 | 0.00 | 0.00 | 92 | 1019.0 |
| 20260506111551 | 53 | 222 | 0.0 | 0.0 | 0.00 | 0.00 | 0.00 | 92 | 1018.9 |
| 20260506110049 | 53 | 222 | 0.0 | 0.0 | 0.00 | 0.00 | 0.00 | 92 | 1018.9 |
| 20260506104550 | 53 | 222 | 0.0 | 0.0 | 0.00 | 0.00 | 0.00 | 92 | 1018.7 |
| 20260506103053 | 53 | 222 | 0.0 | 0.0 | 0.00 | 0.00 | 0.00 | 92 | 1018.6 |
| 20260506101545 | 53 | 222 | 0.0 | 0.0 | 0.00 | 0.00 | 0.00 | 92 | 1018.5 |
| 20260506100045 | 53 | 222 | 0.0 | 0.0 | 0.00 | 0.00 | 0.00 | 92 | 1018.4 |
| 20260506094544 | 53 | 223 | 0.0 | 0.0 | 0.00 | 0.00 | 0.00 | 92 | 1018.4 |
| 20260506093043 | 53 | 222 | 0.0 | 0.0 | 0.00 | 0.00 | 0.00 | 91 | 1018.4 |
| 20260506091551 | 53 | 222 | 0.0 | 0.0 | 0.00 | 0.00 | 0.00 | 91 | 1018.4 |
| 20260506090045 | 53 | 222 | 0.0 | 0.0 | 0.00 | 0.00 | 0.00 | 91 | 1018.4 |
| 20260506084547 | 53 | 222 | 0.0 | 0.0 | 0.00 | 0.00 | 0.00 | 91 | 1018.4 |
| 20260506083040 | 53 | 222 | 0.0 | 0.0 | 0.00 | 0.00 | 0.00 | 91 | 1018.4 |
| 20260506081539 | 53 | 223 | 0.0 | 0.0 | 0.00 | 0.00 | 0.00 | 90 | 1018.4 |
| 20260506073034 | 54 | 222 | 0.0 | 0.0 | 0.00 | 0.03 | 0.00 | 90 | 1018.4 |
| 20260506071532 | 54 | 218 | 0.0 | 0.0 | 0.00 | 0.03 | 0.00 | 89 | 1018.2 |
| 20260506061525 | 55 | 310 | 1.0 | 5.0 | 0.00 | 0.06 | 0.03 | 89 | 1017.6 |
| 20260506044522 | 55 | 200 | 0.0 | 0.0 | 0.00 | 0.18 | 0.03 | 88 | 1016.9 |
| 20260506043016 | 55 | 200 | 0.0 | 0.0 | 0.00 | 0.18 | 0.03 | 88 | 1016.8 |
| 20260506041514 | 55 | 200 | 0.0 | 0.0 | 0.00 | 0.18 | 0.03 | 88 | 1016.6 |
| 20260506040021 | 56 | 200 | 0.0 | 0.0 | 0.00 | 0.18 | 0.03 | 87 | 1016.3 |
| 20260506034519 | 56 | 200 | 0.0 | 0.0 | 0.00 | 0.30 | 0.03 | 87 | 1016.3 |
| 20260506033110 | 56 | 199 | 0.0 | 0.0 | 0.00 | 0.30 | 0.03 | 86 | 1016.2 |
| 20260506031509 | 57 | 200 | 0.0 | 0.0 | 0.00 | 0.30 | 0.03 | 85 | 1016.0 |
| 20260506030025 | 57 | 200 | 0.0 | 0.0 | 0.00 | 0.30 | 0.03 | 85 | 1015.7 |
| 20260506024513 | 57 | 129 | 0.0 | 0.0 | 0.00 | 0.42 | 0.03 | 84 | 1015.6 |
| 20260506023011 | 58 | 150 | 0.0 | 1.0 | 0.00 | 0.42 | 0.03 | 83 | 1015.4 |
| 20260506021504 | 58 | 98 | 0.0 | 1.0 | 0.00 | 0.42 | 0.03 | 82 | 1015.3 |
| 20260506020003 | 59 | 110 | 0.0 | 2.0 | 0.00 | 0.42 | 0.03 | 81 | 1015.1 |
| 20260506014503 | 59 | 67 | 0.0 | 0.0 | 0.00 | 0.51 | 0.03 | 81 | 1015.3 |
| 20260506013004 | 59 | 158 | 0.0 | 1.0 | 0.00 | 0.51 | 0.03 | 81 | 1015.3 |
| 20260506011502 | 59 | 173 | 0.0 | 0.0 | 0.00 | 0.51 | 0.03 | 82 | 1015.3 |
| 20260506010002 | 58 | 128 | 0.0 | 1.0 | 0.00 | 0.51 | 0.03 | 82 | 1015.3 |
| 20260506004601 | 59 | 150 | 0.0 | 1.0 | 0.00 | 0.60 | 0.03 | 82 | 1015.1 |
| 20260506003101 | 58 | 61 | 0.0 | 0.0 | 0.00 | 0.60 | 0.03 | 82 | 1015.0 |
| 20260506001600 | 58 | 191 | 0.0 | 0.0 | 0.00 | 0.60 | 0.03 | 83 | 1015.1 |
| 20260505234559 | 58 | 224 | 0.0 | 2.0 | 0.00 | 0.75 | 0.03 | 81 | 1015.0 |
| 20260505233102 | 58 | 214 | 0.0 | 2.0 | 0.00 | 0.75 | 0.03 | 81 | 1014.9 |
| 20260505231558 | 58 | 183 | 0.0 | 2.0 | 0.00 | 0.75 | 0.03 | 81 | 1014.9 |
| 20260505230105 | 58 | 215 | 0.0 | 0.0 | 0.00 | 0.75 | 0.03 | 80 | 1015.0 |
| 20260505224556 | 59 | 215 | 0.0 | 2.0 | 0.00 | 0.81 | 0.03 | 80 | 1014.9 |
| 20260505223108 | 59 | 214 | 0.0 | 4.0 | 0.00 | 0.81 | 0.03 | 79 | 1015.0 |
| 20260505221555 | 60 | 112 | 0.0 | 2.0 | 0.00 | 0.81 | 0.03 | 80 | 1015.1 |
| 20260505220054 | 60 | 153 | 0.0 | 5.0 | 0.00 | 0.81 | 0.03 | 80 | 1015.2 |
| 20260505214554 | 59 | 148 | 0.0 | 3.0 | 0.00 | 0.87 | 0.03 | 81 | 1015.3 |
| 20260505213059 | 59 | 308 | 0.0 | 4.0 | 0.00 | 0.87 | 0.03 | 79 | 1015.3 |
| 20260505211550 | 59 | 252 | 0.0 | 4.0 | 0.00 | 0.87 | 0.03 | 81 | 1015.4 |
| 20260505210049 | 58 | 295 | 1.0 | 6.0 | 0.00 | 0.87 | 0.03 | 83 | 1015.3 |
| 20260505204548 | 58 | 210 | 2.0 | 5.0 | 0.00 | 0.88 | 0.03 | 82 | 1015.3 |
| 20260505203052 | 58 | 218 | 0.0 | 5.0 | 0.00 | 0.88 | 0.03 | 84 | 1015.3 |
| 20260505201544 | 57 | 218 | 1.0 | 5.0 | 0.00 | 0.88 | 0.03 | 85 | 1015.3 |
| 20260505200042 | 56 | 208 | 1.0 | 6.0 | 0.00 | 0.88 | 0.03 | 87 | 1015.4 |
| 20260505194547 | 55 | 210 | 1.0 | 5.0 | 0.00 | 0.92 | 0.03 | 87 | 1015.5 |
| 20260505193039 | 56 | 221 | 1.0 | 4.0 | 0.00 | 0.92 | 0.03 | 89 | 1015.4 |
| 20260505191538 | 55 | 212 | 1.0 | 4.0 | 0.00 | 0.92 | 0.03 | 90 | 1015.4 |
| 20260505190037 | 55 | 239 | 0.0 | 5.0 | 0.00 | 0.92 | 0.03 | 91 | 1015.4 |
| 20260505184535 | 55 | 236 | 2.0 | 6.0 | 0.00 | 0.93 | 0.03 | 92 | 1015.4 |
| 20260505183034 | 56 | 280 | 0.0 | 2.0 | 0.00 | 0.93 | 0.03 | 94 | 1015.3 |
| 20260505181532 | 55 | 201 | 0.0 | 1.0 | 0.00 | 0.93 | 0.03 | 93 | 1015.2 |
| 20260505180030 | 55 | 149 | 0.0 | 0.0 | 0.00 | 0.93 | 0.03 | 94 | 1015.1 |
| 20260505174529 | 55 | 72 | 0.0 | 0.0 | 0.00 | 0.94 | 0.03 | 94 | 1015.0 |
| 20260505173039 | 53 | 221 | 0.0 | 3.0 | 0.00 | 0.94 | 0.03 | 94 | 1014.9 |
| 20260505171524 | 53 | 208 | 0.0 | 1.0 | 0.00 | 0.94 | 0.03 | 94 | 1015.0 |
| 20260505170027 | 52 | 206 | 0.0 | 0.0 | 0.00 | 0.94 | 0.03 | 94 | 1015.1 |
| 20260505164542 | 51 | 198 | 0.0 | 3.0 | 0.00 | 0.98 | 0.03 | 94 | 1015.1 |
| 20260505163018 | 51 | 208 | 0.0 | 1.0 | 0.00 | 0.98 | 0.03 | 94 | 1014.9 |
| 20260505161515 | 51 | 211 | 0.0 | 0.0 | 0.00 | 0.98 | 0.03 | 95 | 1014.9 |
| 20260505153011 | 49 | 188 | 0.0 | 1.0 | 0.00 | 0.98 | 0.03 | 94 | 1014.8 |
| 20260505151505 | 49 | 198 | 0.0 | 2.0 | 0.00 | 0.98 | 0.03 | 94 | 1014.7 |
| 20260505130103 | 49 | 142 | 0.0 | 0.0 | 0.00 | 0.98 | 0.03 | 94 | 1013.8 |
| 20260505124558 | 49 | 141 | 0.0 | 0.0 | 0.00 | 0.98 | 0.03 | 94 | 1013.8 |
| 20260505123105 | 49 | 142 | 0.0 | 0.0 | 0.00 | 0.98 | 0.03 | 94 | 1013.5 |
| 20260505121558 | 49 | 166 | 0.0 | 1.0 | 0.00 | 0.98 | 0.03 | 94 | 1013.6 |
| 20260505120058 | 49 | 218 | 0.0 | 0.0 | 0.00 | 0.98 | 0.03 | 94 | 1013.6 |
| 20260505114558 | 49 | 222 | 0.0 | 0.0 | 0.00 | 0.98 | 0.03 | 94 | 1013.8 |